Location: Avon
(37.7514°N, 90.2235°W)
Time: 23:01:23
(UTC+00:00)

Explorer 7 - Pass Details

Date: 19 November 2024
Orbit: 456 x 598 km, 50.3° (Epoch: 03 December)

Event Time Altitude Azimuth Distance (km) Brightness Sun altitude
Exits shadow 11:35:17 12° 332° (NNW) 1,665 8.9 -14.0°
Maximum altitude 11:38:08 23° 22° (NNE) 1,206 8.6 -13.4°
Drops below altitude 10° 11:41:35 10° 75° (ENE) 1,874 10.5 -12.8°
Sets 11:44:16 0° 90° (E) 2,794 12.1 -12.3°
